Weather History for Port Angeles, WA

Change the Weather History Date:

Thursday, January 16, 2014

  Actual Average Record
Temperature  
Mean Temperature 43 °F -  
Max Temperature 45 °F 46 °F 54 °F (1961)
Min Temperature 41 °F 35 °F 19 °F (1950)
Degree Days  
Heating Degree Days 22    
Moisture  
Dew Point 39 °F    
Average Humidity 87    
Maximum Humidity 96    
Minimum Humidity 82    
Precipitation  
Precipitation 0.00 in - - ()
Sea Level Pressure  
Sea Level Pressure 30.47 in    
Wind  
Wind Speed 7 mph (ESE)    
Max Wind Speed 9 mph    
Max Gust Speed -    
Visibility 9 miles    
Events      
Averages and records for this station are not official NWS values.
T = Trace of Precipitation, MM = Missing Value Source: NWS Daily Summary

Daily Weather History Graph

Daily Weather History Graph

Search for Another Location

Airport:

Trip Planner

Search our weather history database for the weather conditions in past years. The results will help you decide how hot, cold, wet, or windy it might be!

Date:

Astronomy

Jan. 16, 2014 Rise Set
Actual Time 7:58 AM PST 4:49 PM PST
Civil Twilight 7:23 AM PST 5:24 PM PST
Nautical Twilight 6:44 AM PST 6:03 PM PST
Astronomical Twilight 6:07 AM PST 6:40 PM PST
Moon 5:54 PM PST (1/16) 7:48 AM PST (1/16)
Length of Visible Light 10h 01m
Length of Day
8h 51m
Full, 100% of the Moon is Illuminated
Jan 16
Full
Jan 23
Last Quarter
Jan 30
New
Feb 6
First Quarter
Feb 14
Full

Hourly Weather History & Observations

Time (PST) Temp. Windchill Dew Point Humidity Pressure Visibility Wind Dir Wind Speed Gust Speed Precip Events Conditions
12:31 AM 42.1 °F 38.4 °F 41.0 °F 96% 30.53 in 2.5 mi SSE 5.8 mph - N/A   Overcast
12:38 AM 41.0 °F 37.1 °F 39.9 °F 96% 30.53 in 4.0 mi SSE 5.8 mph - N/A   Overcast
12:53 AM 42.1 °F 38.4 °F 39.9 °F 92% 30.53 in 7.0 mi SSE 5.8 mph - N/A   Overcast
1:11 AM 42.1 °F 37.7 °F 39.9 °F 92% 30.52 in 7.0 mi SSE 6.9 mph - N/A   Overcast
1:22 AM 42.1 °F 38.4 °F 41.0 °F 96% 30.52 in 6.0 mi SE 5.8 mph - N/A   Overcast
1:53 AM 42.1 °F 37.7 °F 41.0 °F 96% 30.52 in 4.0 mi SE 6.9 mph - N/A   Overcast
2:53 AM 43.0 °F 38.8 °F 39.9 °F 89% 30.53 in 8.0 mi SE 6.9 mph - N/A   Overcast
3:03 AM 43.0 °F 38.8 °F 39.9 °F 89% 30.51 in 9.0 mi SE 6.9 mph - N/A   Overcast
3:53 AM 43.0 °F 39.5 °F 39.9 °F 89% 30.52 in 10.0 mi SE 5.8 mph - N/A   Overcast
4:53 AM 42.1 °F 37.7 °F 39.9 °F 92% 30.51 in 10.0 mi SE 6.9 mph - N/A   Overcast
5:53 AM 43.0 °F 38.8 °F 39.9 °F 89% 30.51 in 10.0 mi SE 6.9 mph - N/A   Overcast
6:53 AM 43.0 °F 38.8 °F 39.0 °F 86% 30.50 in 10.0 mi SE 6.9 mph - N/A   Overcast
7:17 AM 43.0 °F 38.8 °F 39.0 °F 86% 30.49 in 10.0 mi ESE 6.9 mph - N/A   Overcast
7:53 AM 43.0 °F 39.5 °F 39.0 °F 86% 30.51 in 10.0 mi ESE 5.8 mph - N/A   Overcast
8:53 AM 43.0 °F 37.7 °F 39.9 °F 89% 30.51 in 10.0 mi SE 9.2 mph - N/A   Overcast
9:53 AM 44.1 °F 40.1 °F 39.9 °F 85% 30.51 in 10.0 mi SE 6.9 mph - N/A   Overcast
10:04 AM 44.1 °F 40.8 °F 39.9 °F 85% 30.50 in 10.0 mi ESE 5.8 mph - N/A   Overcast
10:53 AM 45.0 °F 40.6 °F 39.9 °F 82% 30.51 in 10.0 mi ESE 8.1 mph - N/A   Overcast
11:53 AM 44.1 °F 39.5 °F 39.0 °F 82% 30.48 in 10.0 mi East 8.1 mph - N/A   Overcast
12:45 PM 44.1 °F 39.5 °F 39.0 °F 82% 30.45 in 10.0 mi East 8.1 mph - N/A   Overcast
12:53 PM 44.1 °F 39.5 °F 39.0 °F 82% 30.46 in 10.0 mi East 8.1 mph - N/A   Overcast
1:09 PM 44.1 °F 39.0 °F 39.0 °F 82% 30.44 in 10.0 mi ESE 9.2 mph - N/A   Overcast
1:27 PM 44.1 °F 40.1 °F 39.0 °F 82% 30.44 in 10.0 mi East 6.9 mph - N/A   Overcast
1:53 PM 44.1 °F 41.5 °F 39.0 °F 82% 30.45 in 10.0 mi ENE 4.6 mph - N/A   Overcast
2:02 PM 44.1 °F 39.5 °F 39.0 °F 82% 30.44 in 10.0 mi East 8.1 mph - N/A   Overcast
2:53 PM 44.1 °F 40.1 °F 39.0 °F 82% 30.44 in 10.0 mi East 6.9 mph - N/A   Overcast
3:12 PM 44.1 °F 40.8 °F 39.0 °F 82% 30.43 in 10.0 mi East 5.8 mph - N/A   Overcast
3:53 PM 44.1 °F 40.1 °F 39.0 °F 82% 30.42 in 10.0 mi ESE 6.9 mph - N/A   Overcast
4:53 PM 43.0 °F 40.3 °F 39.0 °F 86% 30.42 in 10.0 mi East 4.6 mph - N/A   Overcast
5:53 PM 43.0 °F 38.8 °F 39.0 °F 86% 30.42 in 10.0 mi East 6.9 mph - N/A   Overcast
6:53 PM 42.1 °F 38.4 °F 39.0 °F 89% 30.41 in 10.0 mi ESE 5.8 mph - N/A   Overcast
7:53 PM 42.1 °F 38.4 °F 39.0 °F 89% 30.40 in 10.0 mi SE 5.8 mph - N/A   Overcast
8:53 PM 41.0 °F 37.1 °F 39.0 °F 93% 30.39 in 10.0 mi SE 5.8 mph - N/A   Overcast
9:53 PM 41.0 °F 35.8 °F 37.9 °F 89% 30.39 in 10.0 mi SE 8.1 mph - N/A   Overcast
10:53 PM 41.0 °F 36.4 °F 39.0 °F 93% 30.39 in 10.0 mi SE 6.9 mph - N/A   Overcast
11:48 PM 42.8 °F 38.6 °F 39.2 °F 87% 30.37 in 10.0 mi SE 6.9 mph - N/A   Overcast
11:53 PM 42.1 °F 37.1 °F 39.0 °F 89% 30.38 in 10.0 mi ESE 8.1 mph - N/A   Overcast